Location: Hurstbourne Priors
(51.2000°N, 1.3667°W)
Time: 16:59:41
(UTC+00:00)

Cosmos 2322 Rocket - Pass Details

Date: 09 April 2020
Orbit: 834 x 849 km, 71.0° (Epoch: 02 June)

Event Time Altitude Azimuth Distance (km) Brightness Sun altitude
Rises 21:32:33 0° 331° (NNW) 3,409 6.7 -22.1°
Reaches altitude 10° 21:35:28 10° 345° (NNW) 2,468 5.5 -22.4°
Maximum altitude 21:40:05 25° 39° (NE) 1,638 3.8 -22.9°
Enters shadow 21:42:16 20° 73° (ENE) 1,855 3.8 -23.1°
